FALCON 9 R/B, 40618

Orbit data source: Space-Track

FALCON 9 R/B, 40618 is space debris in HEO originally from a launch on Mon, 27 Apr 2015 UTC launched from the Air Force Eastern Test Range (AFETR). Debris objects in space refer to the collection of defunct objects orbiting the Earth. Examples of debris include non-operational satellites, rocket bodies, and fragments generated from explosions, collisions, or faulty payload assembly.

Loading next visibility...
Identifier
40618, 2015-023B
Orbit
HEO
Country
Flag of USUS
Related business
Manufacturer
SpaceX
Mission
Spacecraft
Bus & Motor
F9ST2, Unknown motor
Mass
~4,000 kg wet, ~4,000 kg dry
Launch date (UTC)
2015-04-27 (11 years ago)
Launch vehicle
Unknown
Launch site
Air Force Eastern Test Range (AFETR)
Object type
Payload
Rocket body
Debris
Shape & HBR
Cyl, 7.3 m
Radar Cross Section
46.370 m², Large (>1 m²)

Expand to show TLE details & history
Last TLE update: 2 days ago

TLE from 2 days ago
0 FALCON 9 R/B
1 40618U 15023B   26171.24671833  .00129164 -28762-6  86157-3 0  9996
2 40618  25.1197 181.9525 5672871 260.7022  34.3933  4.67376969129781
Epoch: 2026-06-20T05:55Z
TLE epoch observation values (Epoch: 2026-06-20T05:55:16.463Z)
Latitude
-0.00014°
Longitude
-175.33427°
Altitude
4,902.257 km
Speed
6.655 km/s
True Right ascension
12h 07m 47s
True Declination
0° 00' 00"
Sunlit
Object was in daylight at epoch
Visualization orbit readout
Latitude
Unknown
Longitude
Unknown
Altitude
Unknown
Speed
Unknown
Apparent Right ascension
Unknown
Apparent Declination
Unknown
Sunlit
N/A
Visualization observer readout
Local Sidereal Time
21:42:19
Azimuth
Unknown
Elevation
Unknown
Doppler factor
Unknown
Orbital elements
Apogee altitude
17,310.964 km
Perigee altitude
162.196 km
Semi-major axis
15,114.717 km
Eccentricity
0.56729
Inclination
25.1197°
RAAN
181.9525°
Arg. of periapsis
260.7022°
True anomaly
99.30306°
Mean anomaly
34.3933°
Eccentric anomaly
63.47522°
Mean motion
1.168 °/min
Orbital period
308.22 mins
BSTAR
0.00086157
Loading maneuver chart data...
Computing Atmospheric mass density...
Loading historical data...
Loading historical data...
Loading historical data...
Loading historical data...
Loading historical data...
Loading historical data...
Loading historical data...
Other satellites on launch #23 in the year 2015 (2015-04-27 UTC)

Documentation

Showing up to 5 results
|